Managua, Nicaragua

5:08 PM CST on December 12, 2017 (GMT -0600)
Augusto Cesar Sandino

Weather History for MNMG - December, 2013

Change the Weather History Date:

Wednesday, December 4, 2013

  Actual Average Record
Temperature  
Mean Temperature 80 °F -  
Max Temperature 89 °F 87 °F 95 °F (2015)
Min Temperature 71 °F 69 °F 68 °F (1996)
Cooling Degree Days 15    
Growing Degree Days 30 (Base 50)    
Moisture  
Dew Point 70 °F    
Average Humidity 73    
Maximum Humidity 94    
Minimum Humidity 46    
Precipitation  
Precipitation 0.00 in - - ()
Sea Level Pressure  
Sea Level Pressure 29.86 in    
Wind  
Wind Speed 3 mph ()    
Max Wind Speed 16 mph    
Max Gust Speed -    
Visibility 6.2 miles    
Events      
Averages and records for this station are not official NWS values.
T = Trace of Precipitation, MM = Missing Value Source: Averaged Metar Reports

Daily Weather History Graph

Daily Weather History Graph

Search for Another Location

Airport or City:

Trip Planner

Search our weather history database for the weather conditions in past years. The results will help you decide how hot, cold, wet, or windy it might be!

Date:

Astronomy

Dec. 04, 2013 Rise Set
Actual Time 5:51 AM CST 5:18 PM CST
Civil Twilight 5:28 AM CST 5:41 PM CST
Nautical Twilight 5:02 AM CST 6:07 PM CST
Astronomical Twilight 4:36 AM CST 6:33 PM CST
Moon 7:25 AM CST (12/4) 7:19 PM CST (12/4)
Length of Visible Light 12h 12m
Length of Day
11h 27m
Waxing Crescent, 4% of the Moon is Illuminated
Dec 4
Waxing Crescent
Dec 9
First Quarter
Dec 17
Full
Dec 25
Last Quarter
Jan 1
New

Hourly Weather History & Observations

Time (CST) Temp. Heat Index Dew Point Humidity Pressure Visibility Wind Dir Wind Speed Gust Speed Precip Events Conditions
12:00 AM 73.4 °F - 68.0 °F 83% 29.86 in 6.2 mi Calm Calm - N/A   Scattered Clouds
1:00 AM 73.4 °F - 68.0 °F 83% 29.86 in 6.2 mi Calm Calm - N/A   Partly Cloudy
2:00 AM 73.4 °F - 68.0 °F 83% 29.83 in 6.2 mi Calm Calm - N/A   Partly Cloudy
3:00 AM 73.4 °F - 69.8 °F 88% 29.83 in 6.2 mi Calm Calm - N/A   Partly Cloudy
4:00 AM 71.6 °F - 68.0 °F 88% 29.83 in 6.2 mi Calm Calm - N/A   Partly Cloudy
5:00 AM 71.6 °F - 69.8 °F 94% 29.86 in 6.2 mi Calm Calm - N/A   Partly Cloudy
6:00 AM 71.6 °F - 68.0 °F 88% 29.89 in 6.2 mi Calm Calm - N/A   Partly Cloudy
7:00 AM 75.2 °F - 71.6 °F 89% 29.92 in 6.2 mi ESE 4.6 mph - N/A   Partly Cloudy
8:00 AM 78.8 °F - 71.6 °F 78% 29.95 in 6.2 mi SE 4.6 mph - N/A   Partly Cloudy
9:00 AM 82.4 °F 86.3 °F 69.8 °F 66% 29.95 in 6.2 mi ENE 4.6 mph - N/A   Partly Cloudy
10:00 AM 84.2 °F 87.3 °F 68.0 °F 58% 29.95 in 6.2 mi ENE 6.9 mph - N/A   Partly Cloudy
11:00 AM 86.0 °F 90.4 °F 69.8 °F 58% 29.92 in 6.2 mi NE 6.9 mph - N/A   Partly Cloudy
12:00 PM 89.6 °F 93.4 °F 68.0 °F 49% 29.89 in 6.2 mi ESE 16.1 mph - N/A   Scattered Clouds
1:00 PM 89.6 °F 92.2 °F 66.2 °F 46% 29.86 in 6.2 mi ENE 9.2 mph - N/A   Scattered Clouds
2:00 PM 89.6 °F 93.4 °F 68.0 °F 49% 29.83 in 6.2 mi East 11.5 mph - N/A   Scattered Clouds
3:00 PM 89.6 °F 94.7 °F 69.8 °F 52% 29.80 in 6.2 mi East 6.9 mph - N/A   Partly Cloudy
4:00 PM 89.6 °F 94.7 °F 69.8 °F 52% 29.77 in 6.2 mi ESE 11.5 mph - N/A   Partly Cloudy
5:00 PM 86.0 °F 91.8 °F 71.6 °F 62% 29.80 in 6.2 mi ESE 6.9 mph - N/A   Partly Cloudy
6:00 PM 82.4 °F 87.2 °F 71.6 °F 70% 29.80 in 6.2 mi ESE 4.6 mph - N/A   Partly Cloudy
7:00 PM 80.6 °F 85.4 °F 73.4 °F 79% 29.83 in 6.2 mi ESE 4.6 mph - N/A   Partly Cloudy
8:00 PM 78.8 °F - 71.6 °F 78% 29.86 in 6.2 mi Calm Calm - N/A   Partly Cloudy
9:00 PM 78.8 °F - 73.4 °F 83% 29.89 in 6.2 mi ESE 4.6 mph - N/A   Partly Cloudy
10:00 PM 77.0 °F - 73.4 °F 89% 29.89 in 6.2 mi ESE 4.6 mph - N/A   Partly Cloudy
11:00 PM 77.0 °F - 73.4 °F 89% 29.89 in 6.2 mi ESE 4.6 mph - N/A   Partly Cloudy